Preview of NWS' New Version of Forecast
This preview is not operational and should not be used for support decisions.

Regional Weather Roundup (RWR)

Issued by National Weather Service (NWS)

                            
000
ASUS43 KDMX 182006
RWRIA 

WEATHER ROUNDUP FOR IOWA
NATIONAL WEATHER SERVICE DES MOINES IA
200 PM CST MON FEB 18 2019

NOTE: "FAIR" INDICATES FEW OR NO CLOUDS BELOW 12,000 FEET WITH NO
SIGNIFICANT WEATHER AND/OR OBSTRUCTIONS TO VISIBILITY.

* - THESE STATIONS ARE NOT NWS STATIONS...THUS NOT UNDER NWS
QUALITY CONTROL.  THEY ALSO DO NOT REPORT WEATHER SUCH 
AS PRECIPITATION OR FOG.  

IAZ001>003-012>014-020>022-031>034-043>046-182100-
   NORTHWEST IOWA
  
CITY           SKY/WX    TMP DP  RH WIND       PRES   REMARKS
CARROLL *      SUNNY     14   9  79 NW10      30.48R WCI   1          
CHEROKEE *     SUNNY     15   7  71 W6        30.49S WCI   6          
DENISON *      SUNNY     16   7  67 NW6       30.50S WCI   7          
LE MARS *      SUNNY     12   5  73 W7        30.50S WCI   2          
ORANGE CITY *  SUNNY     12   9  85 W7        30.47S WCI   2          
SHELDON *      MOSUNNY   10   7  85 NW6       30.46S WCI   1          
SIOUX CITY     SUNNY     15   6  67 NW8       30.51S WCI   4          
SPENCER        SUNNY     15   6  67 W9        30.47R WCI   3          
STORM LAKE *   SUNNY     12   7  79 W8        30.46R WCI   1          
$$
 
IAZ055>058-069>071-079>083-090>094-182100-
   SOUTHWEST IOWA
  
CITY           SKY/WX    TMP DP  RH WIND       PRES   REMARKS
ATLANTIC *     SUNNY     16  10  79 NW6       30.50R WCI   7          
AUDUBON *      SUNNY     18   9  68 CALM      30.48S                  
CLARINDA *     SUNNY     19  12  73 VRB7      30.53R WCI  10          
COUNCIL BLFS * SUNNY     18  12  79 N9        30.48F WCI   6          
CRESTON *      SUNNY     19  12  73 NW9       30.47S WCI   9          
HARLAN  *      SUNNY     16   9  73 NW7       30.49F WCI   6          
LAMONI         CLOUDY    24  15  68 W13       30.45S WCI  12          
RED OAK *      SUNNY     18  12  79 N8        30.50F WCI   7          
SHENANDOAH *   SUNNY     19  12  73 N8        30.52S WCI   9          
$$
 
IAZ047>049-059>061-072>074-084-182100-
   CENTRAL IOWA
  
CITY           SKY/WX    TMP DP  RH WIND       PRES   REMARKS
AMES           SUNNY     16   8  71 NW7       30.48S WCI   6          
ANKENY *       SUNNY     18   9  68 NW7       30.50R WCI   8          
BOONE *        SUNNY     16   9  73 N8        30.46R WCI   5          
CHARITON *     SUNNY     21  12  68 N9        30.46S WCI  11          
DES MOINES     MOSUNNY   20  10  65 W9        30.49R WCI   9          
GRINNELL*      SUNNY     18  11  76 NW7       30.47R WCI   8          
KNOXVILLE *    SUNNY     19  19 100 NW7       30.47S WCI  10          
MARSHALLTOWN   SUNNY     16  11  80 NW5       30.46R WCI   9          
NEWTON *       SUNNY     18  10  73 NW7       30.47R WCI   8          
PELLA *        SUNNY     22  11  63 NW8       30.49R WCI  13          
PERRY *        FAIR      16   8  72 CALM      30.49R                  
$$
 
IAZ004>006-015-016-023>025-035-036-182100-
   NORTH CENTRAL IOWA
  
CITY           SKY/WX    TMP DP  RH WIND       PRES   REMARKS
ALGONA *       SUNNY     12   7  79 N7        30.45S WCI   2          
CLARION *      SUNNY     10   5  79 NW8       30.47R WCI  -1          
ESTHERVILLE    SUNNY     13   6  74 N7        30.45S WCI   3          
FORT DODGE *   SUNNY     19   8  62 NW6       30.48R WCI  11          
MASON CITY     SUNNY     13   8  81 NW9       30.45S WCI   1          
FOREST CITY *  FAIR      14   9  79 N8        30.45S WCI   3          
IOWA FALLS *   FAIR      17  10  74 NW6       30.46R WCI   9          
$$

IAZ007>011-017>019-026>030-037>042-050>054-066-182100-
   NORTHEAST IOWA
  
CITY           SKY/WX    TMP DP  RH WIND       PRES   REMARKS
CEDAR RAPIDS   FAIR      18  13  80 W9        30.44S WCI   7          
CHARLES CITY * FAIR      14   9  79 N8        30.44S WCI   3          
CLINTON *      FAIR      27  18  69 W8        30.44S WCI  19          
DECORAH *      FAIR      19  12  73 N8        30.41R WCI   9          
DUBUQUE        FAIR      24  13  62 W10       30.41R WCI  14          
OELWEIN *      FAIR      18  12  79 NW7       30.44S WCI   8          
WATERLOO       FAIR      19  10  68 NW10      30.45S WCI   7          
$$
 
IAZ064-065-067-068-078-182100-
   EAST CENTRAL IOWA
  
CITY           SKY/WX    TMP DP  RH WIND       PRES   REMARKS
DAVENPORT      FAIR      23  15  71 MISG      30.46R                  
IOWA CITY      FAIR      23  15  71 W10       30.47R WCI  12          
MT. PLEASANT * SUNNY     32  19  59 N8        30.45S WCI  25          
MUSCATINE *    FAIR      27  18  69 NW9       30.47R WCI  17          
QUAD CITIES    FAIR      28  18  66 W7        30.43S WCI  21          
$$
 
IAZ062-063-075>077-085>089-095>099-182100-
   SOUTHEAST IOWA
  
CITY           SKY/WX    TMP DP  RH WIND       PRES   REMARKS
BURLINGTON     SUNNY     28  17  63 NW8       30.44R WCI  20          
FAIRFIELD *    SUNNY     23  16  74 W10       30.46R WCI  12          
KEOKUK *       MOSUNNY   28  18  64 N6G14     30.45R WCI  22          
OSKALOOSA *    FAIR      23  15  71 NW7       30.47S WCI  14          
OTTUMWA        SUNNY     23  15  71 N10       30.46S WCI  12          
WASHINGTON *   SUNNY     23  16  74 W9        30.47R WCI  13          
$$

ABBREVIATIONS USED IN REMARKS
   TC - TEMPERATURES IN CELSIUS
  WCI - WIND CHILL INDEX
   HX - HEAT INDEX
  VSB - VISIBILITY  
$$